UAL3256 KRNO-KSLC

Flight info

Callsign UAL3256
Flight time 1h 5m
Altitude 31000
Route ZEFFR9 BLKJK LLC SLOWN FLECC YUTES2
Aircraft A20N/M-SDE2E3FGHIRWXY/LB1

Departure

Time 2026-05-05 02:41
Airport Reno Tahoe International Airport (KRNO)

Arrival

Time 2026-05-05 03:47
Airport Salt Lake City International Airport (KSLC)
Time Latitude Longitude Altitude Speed Heading
2026-05-05 02:21 39.50437 -119.77328 4413 ft 0 kts
2026-05-05 02:31 39.50429 -119.77328 4413 ft 3 kts
2026-05-05 02:32 39.50409 -119.77330 4414 ft 3 kts 13°
2026-05-05 02:32 39.50390 -119.77338 4414 ft 3 kts 32°
2026-05-05 02:32 39.50377 -119.77354 4414 ft 3 kts 71°
2026-05-05 02:32 39.50374 -119.77367 4415 ft 1 kts 90°
2026-05-05 02:33 39.50374 -119.77370 4413 ft 2 kts 90°
2026-05-05 02:36 39.50374 -119.77367 4416 ft 2 kts 90°
2026-05-05 02:36 39.50373 -119.77289 4415 ft 12 kts 91°
2026-05-05 02:36 39.50378 -119.77180 4411 ft 13 kts 70°
2026-05-05 02:37 39.50465 -119.77152 4409 ft 15 kts 359°
2026-05-05 02:37 39.50568 -119.77151 4410 ft 15 kts 360°
2026-05-05 02:37 39.50669 -119.77151 4411 ft 15 kts
2026-05-05 02:37 39.50777 -119.77150 4409 ft 17 kts
2026-05-05 02:38 39.50901 -119.77151 4409 ft 18 kts 359°
2026-05-05 02:38 39.51022 -119.77150 4411 ft 17 kts
2026-05-05 02:38 39.51140 -119.77149 4411 ft 18 kts
2026-05-05 02:38 39.51273 -119.77149 4410 ft 19 kts 360°
2026-05-05 02:39 39.51374 -119.77111 4412 ft 15 kts 70°
2026-05-05 02:39 39.51375 -119.77047 4411 ft 0 kts 91°
2026-05-05 02:39 39.51375 -119.77046 4411 ft 1 kts 91°
2026-05-05 02:39 39.51374 -119.77022 4411 ft 4 kts 91°
2026-05-05 02:40 39.51374 -119.76967 4410 ft 8 kts 91°
2026-05-05 02:40 39.51336 -119.76923 4411 ft 7 kts 180°
2026-05-05 02:40 39.51231 -119.76924 4414 ft 40 kts 180°
2026-05-05 02:40 39.50716 -119.76926 4410 ft 105 kts 180°
2026-05-05 02:41 39.49812 -119.76929 4410 ft 152 kts 180°
2026-05-05 02:41 39.48630 -119.76934 4562 ft 176 kts 184°
2026-05-05 02:41 39.47430 -119.76849 5182 ft 173 kts 175°
2026-05-05 02:41 39.46225 -119.76799 5834 ft 174 kts 182°
2026-05-05 02:42 39.44980 -119.76839 6209 ft 188 kts 186°
2026-05-05 02:42 39.43618 -119.76911 6388 ft 208 kts 186°
2026-05-05 02:42 39.42085 -119.76979 6537 ft 234 kts 183°
2026-05-05 02:42 39.40376 -119.77002 6802 ft 257 kts 182°
2026-05-05 02:43 39.38506 -119.77003 7130 ft 279 kts 181°
2026-05-05 02:43 39.36527 -119.76996 7768 ft 286 kts 181°
2026-05-05 02:43 39.34509 -119.76987 8478 ft 292 kts 179°
2026-05-05 02:43 39.32495 -119.76597 9144 ft 297 kts 154°
2026-05-05 02:44 39.30887 -119.75026 9837 ft 295 kts 128°
2026-05-05 02:44 39.29711 -119.72867 10558 ft 293 kts 117°
2026-05-05 02:44 39.28761 -119.70525 11250 ft 293 kts 109°
2026-05-05 02:44 39.28310 -119.67985 11922 ft 289 kts 89°
2026-05-05 02:45 39.28438 -119.65456 12640 ft 285 kts 76°
2026-05-05 02:45 39.29017 -119.62938 12842 ft 301 kts 63°
2026-05-05 02:45 39.30138 -119.60566 12972 ft 319 kts 54°
2026-05-05 02:45 39.31452 -119.58132 13129 ft 338 kts 54°
2026-05-05 02:46 39.32805 -119.55646 13591 ft 344 kts 53°
2026-05-05 02:46 39.34195 -119.53104 14143 ft 346 kts 54°
2026-05-05 02:46 39.35665 -119.50609 14633 ft 350 kts 47°
2026-05-05 02:46 39.37436 -119.48416 15135 ft 353 kts 43°
2026-05-05 02:47 39.39245 -119.46255 15660 ft 356 kts 44°
2026-05-05 02:47 39.41067 -119.44075 16184 ft 358 kts 44°
2026-05-05 02:47 39.42896 -119.41888 16722 ft 362 kts 44°
2026-05-05 02:47 39.44751 -119.39661 17267 ft 365 kts 44°
2026-05-05 02:48 39.46601 -119.37428 17825 ft 368 kts 44°
2026-05-05 02:48 39.48483 -119.35156 18332 ft 371 kts 44°
2026-05-05 02:48 39.50390 -119.32858 18822 ft 375 kts 44°
2026-05-05 02:48 39.52308 -119.30559 19362 ft 377 kts 44°
2026-05-05 02:49 39.54244 -119.28249 19892 ft 379 kts 44°
2026-05-05 02:49 39.56195 -119.25924 20384 ft 382 kts 44°
2026-05-05 02:49 39.58156 -119.23586 20852 ft 384 kts 44°
2026-05-05 02:49 39.60113 -119.21246 21262 ft 388 kts 44°
2026-05-05 02:50 39.61458 -119.19635 21547 ft 390 kts 44°
2026-05-05 02:50 39.63435 -119.17264 21971 ft 392 kts 44°
2026-05-05 02:50 39.66107 -119.14051 22530 ft 395 kts 44°
2026-05-05 02:50 39.67477 -119.12401 22793 ft 397 kts 44°
2026-05-05 02:51 39.69487 -119.09984 23197 ft 399 kts 44°
2026-05-05 02:51 39.71534 -119.07527 23558 ft 401 kts 44°
2026-05-05 02:51 39.73592 -119.05057 23889 ft 403 kts 44°
2026-05-05 02:51 39.75662 -119.02569 24208 ft 405 kts 44°
2026-05-05 02:52 39.77713 -119.00096 24528 ft 407 kts 44°
2026-05-05 02:52 39.78635 -118.98986 24656 ft 408 kts 44°
2026-05-05 02:52 39.80723 -118.96462 24981 ft 410 kts 44°
2026-05-05 02:52 39.82788 -118.93961 25272 ft 412 kts 45°
2026-05-05 02:53 39.84887 -118.91415 25568 ft 414 kts 45°
2026-05-05 02:53 39.87006 -118.88846 25937 ft 415 kts 45°
2026-05-05 02:53 39.89122 -118.86283 26317 ft 415 kts 45°
2026-05-05 02:53 39.91231 -118.83729 26790 ft 413 kts 45°
2026-05-05 02:54 39.93338 -118.81177 27258 ft 411 kts 45°
2026-05-05 02:54 39.95429 -118.78641 27712 ft 410 kts 45°
2026-05-05 02:54 39.97519 -118.76104 28187 ft 409 kts 45°
2026-05-05 02:54 39.99573 -118.73603 28644 ft 408 kts 45°
2026-05-05 02:55 40.01642 -118.71077 29108 ft 406 kts 45°
2026-05-05 02:55 40.03710 -118.68552 29587 ft 405 kts 45°
2026-05-05 02:55 40.05769 -118.66032 30042 ft 404 kts 45°
2026-05-05 02:55 40.07799 -118.63545 30394 ft 404 kts 45°
2026-05-05 02:56 40.09838 -118.61012 30714 ft 403 kts 48°
2026-05-05 02:56 40.11609 -118.58164 30835 ft 404 kts 58°
2026-05-05 02:56 40.12957 -118.54943 30857 ft 412 kts 67°
2026-05-05 02:57 40.14651 -118.47702 30852 ft 419 kts 74°
2026-05-05 02:57 40.16207 -118.40338 30852 ft 420 kts 73°
2026-05-05 02:58 40.17783 -118.32974 30847 ft 420 kts 73°
2026-05-05 02:58 40.19339 -118.25668 30841 ft 419 kts 74°
2026-05-05 02:59 40.20887 -118.18289 30835 ft 419 kts 74°
2026-05-05 02:59 40.22414 -118.10965 30836 ft 419 kts 74°
2026-05-05 03:00 40.23952 -118.03563 30820 ft 420 kts 74°
2026-05-05 03:00 40.25481 -117.96192 30822 ft 420 kts 74°
2026-05-05 03:01 40.26996 -117.88857 30830 ft 420 kts 74°
2026-05-05 03:01 40.28533 -117.81455 30819 ft 420 kts 74°
2026-05-05 03:02 40.30057 -117.74050 30826 ft 420 kts 74°
2026-05-05 03:02 40.31558 -117.66681 30819 ft 420 kts 75°
2026-05-05 03:03 40.33055 -117.59312 30815 ft 420 kts 74°
2026-05-05 03:03 40.34577 -117.51899 30814 ft 420 kts 74°
2026-05-05 03:04 40.36084 -117.44507 30815 ft 421 kts 75°
2026-05-05 03:04 40.37575 -117.37061 30806 ft 421 kts 75°
2026-05-05 03:05 40.39061 -117.29620 30805 ft 421 kts 75°
2026-05-05 03:05 40.40547 -117.22215 30816 ft 421 kts 75°
2026-05-05 03:06 40.42045 -117.14765 30826 ft 421 kts 74°
2026-05-05 03:06 40.43520 -117.07358 30826 ft 422 kts 75°
2026-05-05 03:07 40.45002 -116.99884 30846 ft 424 kts 75°
2026-05-05 03:07 40.46504 -116.92302 30856 ft 437 kts 75°
2026-05-05 03:08 40.48037 -116.84505 30857 ft 442 kts 75°
2026-05-05 03:08 40.49564 -116.76669 30860 ft 445 kts 75°
2026-05-05 03:09 40.51098 -116.68791 30848 ft 445 kts 75°
2026-05-05 03:09 40.52635 -116.60896 30837 ft 445 kts 75°
2026-05-05 03:10 40.54154 -116.53050 30815 ft 445 kts 75°
2026-05-05 03:10 40.55678 -116.45133 30792 ft 446 kts 75°
2026-05-05 03:11 40.56938 -116.37181 30792 ft 448 kts 82°
2026-05-05 03:11 40.57713 -116.29032 30793 ft 448 kts 82°
2026-05-05 03:12 40.58487 -116.20921 30798 ft 449 kts 82°
2026-05-05 03:12 40.59259 -116.12746 30803 ft 450 kts 82°
2026-05-05 03:13 40.60027 -116.04560 30820 ft 450 kts 82°
2026-05-05 03:13 40.60785 -115.96409 30812 ft 451 kts 82°
2026-05-05 03:14 40.61543 -115.88219 30805 ft 451 kts 82°
2026-05-05 03:14 40.62294 -115.79987 30809 ft 453 kts 82°
2026-05-05 03:15 40.63037 -115.71777 30800 ft 454 kts 82°
2026-05-05 03:15 40.63775 -115.63507 30804 ft 454 kts 82°
2026-05-05 03:16 40.64510 -115.55239 30811 ft 453 kts 82°
2026-05-05 03:16 40.65237 -115.47016 30818 ft 453 kts 82°
2026-05-05 03:17 40.65959 -115.38793 30810 ft 453 kts 82°
2026-05-05 03:17 40.66682 -115.30521 30801 ft 454 kts 83°
2026-05-05 03:18 40.67389 -115.22290 30795 ft 454 kts 83°
2026-05-05 03:18 40.68097 -115.14004 30789 ft 454 kts 83°
2026-05-05 03:19 40.69147 -115.01595 30792 ft 455 kts 83°
2026-05-05 03:19 40.69835 -114.93348 30798 ft 454 kts 83°
2026-05-05 03:20 40.70435 -114.85040 30803 ft 454 kts 85°
2026-05-05 03:20 40.70656 -114.76699 30806 ft 454 kts 88°
2026-05-05 03:21 40.70700 -114.72619 30788 ft 443 kts 88°
2026-05-05 03:21 40.70745 -114.68581 30787 ft 437 kts 88°
2026-05-05 03:21 40.70889 -114.60605 30787 ft 440 kts 88°
2026-05-05 03:22 40.71091 -114.52506 30784 ft 442 kts 87°
2026-05-05 03:22 40.71293 -114.44388 30782 ft 442 kts 88°
2026-05-05 03:23 40.71473 -114.36302 30798 ft 443 kts 88°
2026-05-05 03:23 40.71641 -114.28161 30797 ft 443 kts 88°
2026-05-05 03:24 40.71803 -114.20034 30813 ft 443 kts 88°
2026-05-05 03:24 40.71963 -114.11952 30812 ft 443 kts 88°
2026-05-05 03:25 40.72119 -114.03821 30810 ft 443 kts 88°
2026-05-05 03:25 40.72264 -113.95723 30815 ft 443 kts 88°
2026-05-05 03:26 40.72405 -113.87573 30804 ft 443 kts 88°
2026-05-05 03:26 40.72541 -113.79501 30785 ft 438 kts 88°
2026-05-05 03:27 40.72610 -113.75489 30044 ft 437 kts 88°
2026-05-05 03:27 40.72655 -113.71411 28414 ft 452 kts 89°
2026-05-05 03:27 40.72662 -113.67209 27126 ft 459 kts 90°
2026-05-05 03:27 40.72644 -113.63090 26640 ft 449 kts 90°
2026-05-05 03:28 40.72619 -113.58968 25937 ft 444 kts 90°
2026-05-05 03:28 40.72598 -113.54963 25272 ft 439 kts 90°
2026-05-05 03:28 40.72583 -113.50930 24541 ft 437 kts 90°
2026-05-05 03:28 40.72571 -113.46932 23914 ft 433 kts 90°
2026-05-05 03:29 40.72563 -113.43013 23293 ft 430 kts 90°
2026-05-05 03:29 40.72554 -113.39077 22598 ft 425 kts 90°
2026-05-05 03:29 40.72544 -113.35198 21985 ft 420 kts 90°
2026-05-05 03:29 40.72531 -113.31369 21380 ft 415 kts 90°
2026-05-05 03:30 40.72514 -113.27584 20798 ft 410 kts 90°
2026-05-05 03:30 40.72496 -113.23841 20237 ft 406 kts 90°
2026-05-05 03:30 40.72478 -113.20169 19690 ft 403 kts 90°
2026-05-05 03:30 40.72460 -113.16465 19154 ft 401 kts 90°
2026-05-05 03:31 40.72440 -113.12805 18626 ft 398 kts 90°
2026-05-05 03:31 40.72419 -113.09147 18118 ft 397 kts 90°
2026-05-05 03:31 40.72397 -113.05516 17570 ft 394 kts 90°
2026-05-05 03:31 40.72376 -113.01998 17400 ft 382 kts 90°
2026-05-05 03:32 40.72355 -112.98551 17264 ft 368 kts 90°
2026-05-05 03:32 40.72331 -112.95231 17126 ft 355 kts 90°
2026-05-05 03:32 40.72305 -112.92019 16994 ft 343 kts 90°
2026-05-05 03:32 40.72280 -112.88930 16885 ft 331 kts 90°
2026-05-05 03:33 40.72257 -112.85998 16896 ft 321 kts 90°
2026-05-05 03:33 40.72233 -112.83037 16696 ft 319 kts 90°
2026-05-05 03:33 40.72207 -112.80125 16505 ft 316 kts 90°
2026-05-05 03:33 40.72179 -112.77225 16305 ft 317 kts 90°
2026-05-05 03:34 40.72153 -112.74300 16119 ft 319 kts 90°
2026-05-05 03:34 40.72126 -112.71403 15933 ft 319 kts 91°
2026-05-05 03:34 40.72097 -112.68471 15736 ft 319 kts 91°
2026-05-05 03:34 40.72064 -112.65540 15536 ft 319 kts 91°
2026-05-05 03:35 40.72034 -112.62645 15354 ft 319 kts 91°
2026-05-05 03:35 40.72006 -112.59730 15159 ft 318 kts 91°
2026-05-05 03:35 40.71982 -112.56811 14956 ft 317 kts 91°
2026-05-05 03:35 40.71960 -112.53903 14762 ft 317 kts 91°
2026-05-05 03:36 40.71753 -112.51012 14574 ft 316 kts 99°
2026-05-05 03:36 40.71459 -112.48147 14479 ft 315 kts 98°
2026-05-05 03:36 40.71166 -112.45276 14286 ft 315 kts 98°
2026-05-05 03:36 40.70873 -112.42404 14104 ft 317 kts 98°
2026-05-05 03:37 40.70580 -112.39560 13922 ft 317 kts 98°
2026-05-05 03:37 40.70283 -112.36680 13722 ft 316 kts 98°
2026-05-05 03:37 40.69988 -112.33807 13530 ft 315 kts 98°
2026-05-05 03:37 40.69793 -112.31908 13393 ft 314 kts 98°
2026-05-05 03:38 40.69403 -112.28109 13135 ft 314 kts 98°
2026-05-05 03:38 40.69240 -112.26211 13003 ft 314 kts 93°
2026-05-05 03:38 40.69430 -112.22451 12757 ft 308 kts 84°
2026-05-05 03:38 40.69585 -112.20573 12660 ft 301 kts 84°
2026-05-05 03:39 40.69814 -112.17889 12520 ft 292 kts 81°
2026-05-05 03:39 40.70446 -112.15401 12420 ft 283 kts 60°
2026-05-05 03:39 40.71655 -112.13421 12289 ft 273 kts 39°
2026-05-05 03:39 40.73117 -112.11889 11973 ft 265 kts 38°
2026-05-05 03:40 40.74562 -112.10413 11515 ft 262 kts 35°
2026-05-05 03:40 40.76208 -112.09466 11080 ft 256 kts
2026-05-05 03:40 40.77954 -112.09649 11056 ft 262 kts 349°
2026-05-05 03:40 40.79898 -112.09773 10868 ft 303 kts
2026-05-05 03:41 40.82098 -112.09572 10983 ft 329 kts
2026-05-05 03:41 40.84479 -112.09332 10992 ft 356 kts
2026-05-05 03:41 40.86981 -112.09200 10646 ft 360 kts 354°
2026-05-05 03:41 40.89348 -112.10040 10241 ft 351 kts 334°
2026-05-05 03:42 40.91556 -112.11258 10104 ft 335 kts 340°
2026-05-05 03:42 40.93779 -112.11763 9659 ft 323 kts
2026-05-05 03:42 40.95917 -112.10884 8692 ft 324 kts 34°
2026-05-05 03:42 40.97412 -112.08738 8037 ft 314 kts 66°
2026-05-05 03:43 40.97826 -112.06049 7711 ft 294 kts 97°
2026-05-05 03:43 40.97142 -112.03618 7348 ft 275 kts 131°
2026-05-05 03:43 40.95683 -112.02132 7056 ft 260 kts 156°
2026-05-05 03:43 40.94002 -112.01504 6822 ft 250 kts 175°
2026-05-05 03:44 40.92298 -112.01327 6570 ft 240 kts 174°
2026-05-05 03:44 40.90652 -112.01135 6227 ft 232 kts 173°
2026-05-05 03:44 40.89106 -112.00949 5906 ft 213 kts 173°
2026-05-05 03:44 40.87694 -112.00779 5589 ft 194 kts 173°
2026-05-05 03:45 40.86437 -112.00627 5305 ft 173 kts 174°
2026-05-05 03:45 40.85306 -112.00490 5126 ft 158 kts 172°
2026-05-05 03:45 40.84244 -112.00354 4920 ft 148 kts 172°
2026-05-05 03:45 40.83222 -112.00217 4783 ft 147 kts 174°
2026-05-05 03:46 40.82197 -112.00100 4614 ft 145 kts 175°
2026-05-05 03:46 40.81181 -111.99986 4359 ft 148 kts 176°
2026-05-05 03:46 40.80166 -111.99858 4241 ft 140 kts 175°
2026-05-05 03:46 40.79348 -111.99767 4231 ft 94 kts 175°
2026-05-05 03:47 40.78883 -111.99704 4233 ft 43 kts 166°
2026-05-05 03:47 40.78723 -111.99540 4232 ft 21 kts 122°
2026-05-05 03:47 40.78715 -111.99510 4232 ft 0 kts 101°
2026-05-05 03:48 40.78714 -111.99506 4232 ft 3 kts 99°
2026-05-05 03:49 40.78716 -111.99425 4231 ft 14 kts 85°
2026-05-05 03:49 40.78724 -111.99293 4231 ft 15 kts 88°
2026-05-05 03:49 40.78725 -111.99211 4231 ft 0 kts 86°
2026-05-05 03:49 40.78725 -111.99205 4231 ft 1 kts 86°
2026-05-05 03:50 40.78728 -111.99163 4231 ft 7 kts 85°
2026-05-05 03:50 40.78732 -111.99087 4231 ft 12 kts 85°
2026-05-05 03:50 40.78733 -111.99074 4231 ft 1 kts 85°
2026-05-05 03:50 40.78733 -111.99061 4231 ft 1 kts 100°
2026-05-05 03:51 40.78733 -111.99015 4231 ft 9 kts 80°
2026-05-05 03:51 40.78743 -111.98930 4231 ft 4 kts 81°
2026-05-05 03:51 40.78752 -111.98897 4231 ft 4 kts 47°
2026-05-05 03:51 40.78778 -111.98895 4231 ft 4 kts
2026-05-05 03:52 40.78803 -111.98892 4231 ft 0 kts
2026-05-05 03:52 40.78811 -111.98891 4230 ft 2 kts
2026-05-05 03:52 40.78823 -111.98889 4231 ft 0 kts